Weather in Khalyasavey

Russia / Yamalo-Nenets Autonomous Okrug     63°22′56″N   78°19′31″E
temp.,
°C
wind,
m/s
gust,
m/s
humid.,
%
clouds,
%
prec.,
mm/h
press.,
hPa
HPBL,
m
27 february, sat
sat2723:00−29sw349795 0.1 1025100
02:00−27sw3398100 0.1 102458
05:00−25sw339899 0.2 102453
08:00−24wsw3398100 0.1 102384
11:00−21w339398 0.1 1024308
14:00−21wnw3492100 0.1 1024445
17:00−25wnw339998 0.1 102520
20:00−26nnw2210090 0.0 102519
28 february, sun
sun2823:00−29wnw1210093 0.1 102619
02:00−30wsw1110097 0.0 102619
05:00−31wsw1110098 0.0 102719
08:00−30s1110094 0.0 102719
11:00−24s229596 0.0 1028204
14:00−22ssw2392100 0.0 1028308
17:00−26s239898 0.0 102819
20:00−28s339626 0.0 102820
1 march, mon
mon123:00−29s239713 0.0 102819
02:00−29s23980 0.0 102719
05:00−30sse231000 0.0 102719
08:00−29sse33980 0.0 102621
11:00−24sse33920 0.0 1026181
14:00−22sse339046 0.0 1024230
17:00−25se239523 0.0 102420
20:00−26sse44967 0.0 102422
2 march, tue
tue223:00−28s459440 0.0 102335
02:00−29s459375 0.0 102240
05:00−29s569268 0.0 102361
08:00−29s58942 0.0 1022118
11:00−24s69901 0.0 1022265
14:00−21sse688748 0.0 1021321
17:00−24sse569052 0.0 102186
20:00−25sse6108979 0.0 1020132
3 march, wed
wed323:00−26sse699178 0.0 1020140
02:00−27sse599464 0.0 1020101
05:00−28sse699554 0.0 1020106
08:00−27sse6129485 0.0 1019200
11:00−22s7129177 0.0 1019360
14:00−19sse7119064 0.0 1019396
17:00−21sse6109159 0.0 1018153
20:00−22sse8169070 0.0 1018277